DW7831 Weather Reports


time (UTC)temp
C
wind
direction
speed
KPH
gust
KPH
rain 1hr
cm
rain 24hr
cm
rain mn
cm
humidity
%
barometer
mb
20260509013058 4 246 0.0 0.0 0.00 0.00 0.10 63 1013.7
20260509010057 4 246 0.0 0.0 0.00 0.00 0.10 64 1013.3
20260509004547 5 246 0.0 0.0 0.00 0.00 0.10 61 1013.0
20260509003046 6 246 0.0 0.0 0.00 0.00 0.10 58 1012.9
20260509000035 8 246 0.0 0.0 0.00 0.00 0.10 51 1012.6
20260508234532 8 246 0.0 0.0 0.00 0.00 0.10 49 1012.6
20260508233027 8 246 0.0 0.0 0.00 0.00 0.10 48 1012.3
20260508230019 9 257 6.4 0.0 0.00 0.00 0.10 47 1012.1
20260508224519 9 243 6.4 0.0 0.00 0.00 0.10 46 1012.0
20260508223010 9 207 12.9 0.0 0.00 0.00 0.10 46 1012.2
20260508220015 9 244 9.7 0.0 0.00 0.00 0.10 46 1012.3
20260508214559 9 229 9.7 0.0 0.00 0.00 0.10 45 1012.1
20260508213059 9 256 6.4 0.0 0.00 0.00 0.10 48 1012.1
20260508210048 8 229 8.0 0.0 0.00 0.00 0.10 53 1012.3
20260508204544 8 261 4.8 0.0 0.00 0.00 0.08 55 1012.3
20260508203040 7 218 6.4 0.0 0.00 0.00 0.08 58 1012.2
20260508200031 7 248 8.0 0.0 0.00 0.00 0.08 58 1012.7
20260508194532 6 252 8.0 0.0 0.00 0.00 0.08 58 1012.7
20260508193026 6 227 4.8 0.0 0.00 0.00 0.08 58 1012.8
20260508190018 7 201 9.7 0.0 0.00 0.00 0.08 57 1013.2
20260508184519 6 234 3.2 0.0 0.00 0.00 0.08 54 1013.0
20260508183011 6 229 11.3 0.0 0.00 0.00 0.08 47 1012.9
20260508180108 5 197 8.0 0.0 0.00 0.00 0.08 23 1013.1
20260508174612 4 200 9.7 0.0 0.00 0.00 0.08 16 1013.2
20260508173051 4 191 8.0 0.0 0.00 0.00 0.08 6 1013.2
20260508170045 3 240 1.6 0.0 0.00 0.00 0.08 14 1013.3
20260508164540 3 235 4.8 0.0 0.00 0.00 0.08 20 1013.2
20260508163039 3 242 1.6 0.0 0.00 0.00 0.05 20 1013.2
20260508160032 3 242 3.2 0.0 0.00 0.00 0.05 26 1013.1
20260508154526 3 240 1.6 0.0 0.00 0.00 0.05 31 1013.2
20260508153023 3 238 1.6 0.0 0.00 0.00 0.05 43 1013.2
20260508150018 4 233 6.4 0.0 0.00 0.00 0.00 63 1012.9
20260508144511 6 238 4.8 0.0 0.00 0.00 0.00 61 1012.7
20260508143006 7 236 4.8 0.0 0.00 0.00 0.00 54 1012.2
20260508140100 7 257 1.6 0.0 0.00 0.00 0.00 56 1012.1
20260508134602 7 237 4.8 0.0 0.00 0.00 0.00 57 1012.1
20260508133049 6 230 1.6 0.0 0.00 0.00 0.00 58 1012.2
20260508131645 5 229 3.2 0.0 0.00 0.00 0.00 58 1012.4
20260508130041 5 221 0.0 0.0 0.00 0.00 0.00 58 1012.2
20260508124537 5 205 3.2 0.0 0.00 0.00 0.00 56 1012.5
20260508123033 4 231 4.8 0.0 0.00 0.00 0.00 51 1012.8
20260508121629 3 244 1.6 0.0 0.00 0.00 0.00 39 1012.6
20260508120026 3 282 0.0 0.0 0.00 0.00 0.00 37 1012.6
20260508114522 3 282 0.0 0.0 0.00 0.00 0.00 37 1012.8
20260508113018 2 282 0.0 0.0 0.00 0.00 0.00 37 1012.9
20260508111613 2 279 3.2 0.0 0.00 0.00 0.00 37 1012.9
20260508110016 2 279 0.0 0.0 0.00 0.00 0.00 36 1012.8
20260508104507 2 279 3.2 0.0 0.00 0.00 0.00 35 1012.7
20260508103000 2 285 1.6 0.0 0.00 0.00 0.00 34 1012.5
20260508101559 2 287 0.0 0.0 0.00 0.00 0.00 32 1012.4
20260508100055 2 287 0.0 0.0 0.00 0.00 0.00 32 1012.1
20260508094609 2 304 0.0 0.0 0.00 0.00 0.00 35 1012.0
20260508093047 2 304 0.0 0.0 0.00 0.00 0.00 33 1011.9
20260508091543 1 304 0.0 0.0 0.00 0.00 0.00 28 1011.8
20260508090043 1 304 0.0 0.0 0.00 0.00 0.00 27 1011.8
20260508084535 1 304 0.0 0.0 0.00 0.00 0.00 24 1011.5
20260508083030 1 304 0.0 0.0 0.00 0.00 0.00 20 1011.4
20260508081553 1 304 0.0 0.0 0.00 0.00 0.00 11 1011.4
20260508080022 0 304 0.0 0.0 0.00 0.00 0.00 8 1011.4
20260508074518 0 304 0.0 0.0 0.00 0.00 0.00 5 1011.3
20260508073015 0 305 0.0 0.0 0.00 0.00 0.00 8 1011.5
20260508071525 0 305 0.0 0.0 0.00 0.00 0.00 13 1011.3
20260508070007 0 305 0.0 0.0 0.00 0.00 0.00 16 1011.4
20260508064508 0 305 0.0 0.0 0.00 0.00 0.00 17 1011.1
20260508063117 0 305 0.0 0.0 0.00 0.00 0.00 19 1011.2
20260508061557 0 305 0.0 0.0 0.00 0.00 0.00 20 1011.1
20260508060056 0 305 0.0 0.0 0.00 0.00 0.00 21 1011.1
20260508054549 0 305 0.0 0.0 0.00 0.00 0.00 22 1011.3
20260508053043 0 305 0.0 0.0 0.00 0.00 0.00 23 1011.2
20260508051541 0 305 0.0 0.0 0.00 0.00 0.00 26 1011.2
20260508050037 0 305 0.0 0.0 0.00 0.00 0.00 32 1011.4
20260508044536 0 305 0.0 0.0 0.00 0.00 0.00 36 1011.5
20260508043033 0 305 0.0 0.0 0.00 0.00 0.00 39 1011.3
20260508041531 0 305 0.0 0.0 0.00 0.00 0.00 43 1011.1
20260508040028 0 305 0.0 0.0 0.00 0.00 0.00 48 1011.1
20260508034524 0 305 0.0 0.0 0.00 0.00 0.05 51 1011.1
20260508033022 0 305 0.0 0.0 0.00 0.00 0.05 54 1011.3
20260508031516 1 305 0.0 0.0 0.00 0.00 0.05 56 1011.2
20260508030015 1 305 0.0 0.0 0.00 0.00 0.05 58 1011.1
20260508024517 1 305 0.0 0.0 0.00 0.00 0.05 59 1011.0
20260508023008 2 305 0.0 0.0 0.00 0.00 0.05 62 1011.1
20260508021501 2 305 0.0 0.0 0.00 0.00 0.05 64 1011.0
20260508020105 2 305 0.0 0.0 0.00 0.00 0.05 65 1011.0
20260508014556 3 305 0.0 0.0 0.00 0.00 0.05 65 1010.8